Tracking 35237 objects as of 5-Sep-2026
HD Live streaming from Space Station
objects crossing your sky now

DELTA 4 DEB

Track DELTA 4 DEB now!
10-day predictions


NORAD ID: 40649
Int'l Code: 2015-013F
Launch date: March 25, 2015
Source: United States (US)
Launch site: AIR FORCE EASTERN TEST RANGE (AFETR)

Note: This is SATELLITE DEBRIS
Your satellite tracking list
Your tracking list is empty




NASA's NSSDC Master Catalog

Two Line Element Set (TLE):
1 40649U 15013F   26116.35369068  .00000012  00000-0  00000-0 0  9992
2 40649  52.8817 140.1639 5617774 206.4926 108.2872  3.87570613  9542
Source of the keplerian elements: AFSPC